QPS-SAR-1 IZANAGI (44856 NORAD) Tracking and Keplerian Element Data

This shows tracking and keplerian element data for the satellite.

Feedback or suggestion? Click here.




ElementValue
Catalog44856
NameQPS-SAR-1 IZANAGI
Epoch Orbit3129
Epoch Day189.10725131
Epoch Year2020
RAAN343.5506
Inclination36.9704
Eccentricity0.0004758
Argument of Perigee214.3982
Mean Anonmoly145.6456
Mean Motion14.98426763
Decay Rate3.35E-06
L11 44856U 19089E 20189.10725131 .00000335 00000-0 33971-4 0 9992
L22 44856 36.9704 343.5506 0004758 214.3982 145.6456 14.98426763 31293

Live tracking and technical data element details for QPS-SAR-1 IZANAGI (NORAD 44856). QPS-SAR-1 IZANAGI can be tracked NOW for your location showing map with azimuth and elevation plus other details from your city location.

Track the satellite on the map from your city or location and see movement details for azimuth, elevation, latitude, longitude, range, height, and movement on the map or in text.







IsCatalogInMostPopularTable: catalog: 44856, numindb: 69
Update: records affected: 1



GetName: 44856 QPS-SAR-1 IZANAGI

Hit Count: updated at: Tue, 07 Jul 2020 19:21:46 GMT